sat.trackr.live / text

‹ back to catalog

STARLINK-30446

NORAD 57872 · 2023-144J

PAYLOAD ACTIVE UNKNOWN

§ Identity

Operator
Country
US
Launch date
2023-09-16
Launch site
AFETR
Launch vehicle
Mass (kg)
RCS (m²)

Purposes: comms

External: N2YO · Heavens-Above · Gunter

§ Orbital elements

Epoch: 2026-09-20T06:46:59.054880Z

Period
94.27 min
Inclination
43.0015°
Eccentricity
0.0001056
Mean motion
15.27576849 rev/d
Perigee alt
482.3 km
Apogee alt
483.8 km
Semi-major
6,861.2 km
B*
1.3307e-5
RAAN
252.1180°
Arg perigee
271.9599°
Mean anomaly
88.1132°
Rev number
16,729

§ Raw data

STARLINK-304461 57872U 23144J   26263.28262795  .00000104  00000+0  13307-4 0  99952 57872  43.0015 252.1180 0001056 271.9599  88.1132 15.27576849167299

JSON: /api/v1/satellites/57872 · /tle

For live sub-satellite position, see the globe view (requires WebGL).

§ Visibility from observer

Set your observer location to see the next 7 days of passes ≥ 10°. The values pass through the URL so the page stays shareable.

No JS? Fill the form by hand. The geolocation button needs JavaScript.